Flag for U.S.A. Weather past 2 weeks in Shreveport, Louisiana, U.S.A.

Now
80 °F

Sunny.


Feels Like: 81 °F
Forecast: 54 / 84 °F
Wind: 7 mph from Southwest

Location: Shreveport Regional Airport

Current Time: Oct 25, 2014 at 1:23:43 PM

Latest Report: Oct 25, 2014 at 12:56 PM


Visibility: 10 mi

Pressure: 30.13 "Hg

Humidity: 51%

Dew point: 60 °F

Location of ShreveportLocation

Historic Weather in Shreveport — Graph

°F

Shreveport temperature yesterday

Maximum temperature yesterday: 78 °F (at 3:56 PM)
Minimum temperature yesterday: 49 °F (at 6:56 AM)
Average temperature yesterday: 62 °F

Past Weeks' High & Low Weather Summary

 TemperatureHumidityPressure
High89 °F (Oct 10, 1:56 PM)100% (Oct 11, 4:56 AM)30.19 "Hg (Oct 11, 4:56 AM)
Low48 °F (Oct 15, 3:56 AM)27% (Oct 14, 4:56 PM)29.65 "Hg (Oct 13, 5:56 AM)
Average66 °F73%30.00 "Hg
* Reported Oct 10 11:56 AM — Oct 25 11:56 AM, Shreveport, Weather by CustomWeather, © 2014

Note: Actual official high and low records may vary slightly from our data, if they occured in-between our weather recording intervals... More about our weather records

Advertising

Shreveport weather history for previous 24 hours

 ConditionsComfort  
Time TempWeatherWind HumidityBarometerVisibility
11:56 AM
Oct 25
78 °FSunny.8 mph52%30.15 "Hg10 mi
10:56 AM75 °FSunny.7 mph60%30.16 "Hg10 mi
9:56 AM69 °FSunny.3 mph68%30.16 "Hg10 mi
8:56 AM62 °FSunny.3 mph80%30.15 "Hg10 mi
7:56 AM53 °FClear.No wind93%30.14 "Hg10 mi
6:56 AM54 °FClear.No wind93%30.13 "Hg9 mi
5:56 AM55 °FClear.3 mph90%30.12 "Hg10 mi
4:56 AM54 °FClear.No wind93%30.11 "Hg10 mi
3:56 AM54 °FClear.No wind93%30.11 "Hg10 mi
2:56 AM55 °FClear.No wind93%30.11 "Hg10 mi
1:56 AM55 °FClear.No wind93%30.11 "Hg10 mi
12:56 AM57 °FClear.No wind90%30.11 "Hg10 mi
11:56 PM
Oct 24
60 °FPassing clouds.3 mph83%30.12 "Hg10 mi
10:56 PM59 °FPassing clouds.No wind90%30.11 "Hg10 mi
9:56 PM60 °FPassing clouds.No wind86%30.11 "Hg10 mi
8:56 PM61 °FPassing clouds.No wind83%30.11 "Hg10 mi
7:56 PM65 °FPassing clouds.No wind73%30.11 "Hg10 mi
6:56 PM68 °FPartly sunny.No wind70%30.10 "Hg10 mi
5:56 PM75 °FPartly sunny.No wind48%30.09 "Hg10 mi
4:56 PM78 °FScattered clouds.No wind42%30.10 "Hg10 mi
3:56 PM78 °FPassing clouds.3 mph42%30.10 "Hg10 mi
2:56 PM77 °FPassing clouds.6 mph44%30.10 "Hg10 mi
1:56 PM74 °FPassing clouds.6 mph45%30.12 "Hg10 mi
Weather by CustomWeather, © 2014

See weather overviewHow to use our weather pages